PA2JOK Weather Reports


Display with metric or nautical units.
time (UTC)temp
F
wind
direction
speed
MPH
gust
MPH
rain 1hr
in
rain 24hr
in
rain mn
in
humidity
%
barometer
mb
20260503020302 57 208 0.0 4.0 0.00 0.24 0.01 90 1010.2
20260503014802 56 199 0.0 6.0 0.00 0.24 0.01 90 1010.3
20260503013303 56 135 0.0 8.0 0.00 0.24 0.01 90 1010.3
20260503011804 56 165 2.0 8.0 0.00 0.24 0.01 90 1010.3
20260503010302 57 176 2.0 8.0 0.00 0.24 0.01 90 1010.4
20260503004802 57 187 2.0 4.0 0.01 0.24 0.01 90 1010.4
20260503003303 56 145 0.0 6.0 0.01 0.24 0.01 90 1010.4
20260503001803 56 143 2.0 8.0 0.01 0.24 0.01 90 1010.4
20260503000304 56 86 4.0 4.0 0.01 0.24 0.01 89 1010.6
20260502234802 56 107 2.0 4.0 0.00 0.24 0.24 89 1011.1
20260502233302 56 111 0.0 6.0 0.00 0.24 0.24 89 1011.1
20260502231803 56 189 4.0 6.0 0.00 0.24 0.24 89 1011.2
20260502230303 57 128 2.0 6.0 0.00 0.24 0.24 88 1011.3
20260502224803 57 69 2.0 8.0 0.02 0.24 0.24 87 1011.6
20260502223302 56 118 0.0 10.0 0.06 0.24 0.24 88 1011.5
20260502221803 56 105 6.0 8.0 0.10 0.24 0.24 87 1011.6
20260502220303 57 99 2.0 8.0 0.24 0.24 0.24 86 1011.6
20260502214803 57 93 6.0 8.0 0.22 0.22 0.22 84 1012.0
20260502213302 59 290 0.0 6.0 0.18 0.18 0.18 81 1012.8
20260502211802 59 302 4.0 10.0 0.13 0.13 0.13 78 1013.2
20260502210303 62 186 2.0 14.0 0.00 0.00 0.00 65 1013.2
20260502204802 63 115 8.0 10.0 0.00 0.00 0.00 59 1011.8
20260502203302 63 93 2.0 10.0 0.00 0.00 0.00 58 1011.8
20260502201803 63 68 6.0 8.0 0.00 0.00 0.00 57 1011.7
20260502200303 63 72 2.0 6.0 0.00 0.00 0.00 55 1012.0
20260502194802 64 20 4.0 10.0 0.00 0.00 0.00 55 1012.1
20260502193303 64 49 4.0 6.0 0.00 0.00 0.00 55 1012.3
20260502191802 64 17 0.0 6.0 0.00 0.00 0.00 54 1012.3
20260502190302 65 23 0.0 8.0 0.00 0.00 0.00 54 1012.3
20260502184803 66 20 2.0 6.0 0.00 0.00 0.00 54 1012.3
20260502183303 67 4 0.0 6.0 0.00 0.00 0.00 54 1012.4
20260502181802 68 24 4.0 6.0 0.00 0.00 0.00 52 1012.5
20260502180302 69 33 0.0 10.0 0.00 0.00 0.00 51 1012.4
20260502170302 70 355 2.0 8.0 0.00 0.00 0.00 47 1012.7
20260502163303 71 177 0.0 8.0 0.00 0.00 0.00 49 1013.2
20260502161803 71 207 0.0 6.0 0.00 0.00 0.00 49 1013.3
20260502160302 71 56 0.0 4.0 0.00 0.00 0.00 50 1013.3
20260502151802 72 245 0.0 6.0 0.00 0.00 0.00 49 1013.9
20260502150303 71 180 0.0 6.0 0.00 0.00 0.00 51 1014.1
20260502130302 72 56 0.0 6.0 0.00 0.00 0.00 53 1015.4
20260502123303 71 271 0.0 6.0 0.00 0.00 0.00 54 1015.6
20260502121802 70 2 2.0 6.0 0.00 0.00 0.00 56 1015.9
20260502120303 71 187 2.0 8.0 0.00 0.00 0.00 55 1016.0
20260502114803 71 101 0.0 8.0 0.00 0.00 0.00 55 1016.0
20260502113303 71 158 0.0 6.0 0.00 0.00 0.00 54 1016.2
20260502111802 71 154 0.0 4.0 0.00 0.00 0.00 54 1016.2
20260502110303 71 247 0.0 6.0 0.00 0.00 0.00 54 1016.4
20260502104803 70 144 0.0 6.0 0.00 0.00 0.00 55 1016.6
20260502103302 70 154 0.0 6.0 0.00 0.00 0.00 54 1016.5
20260502101802 71 293 0.0 6.0 0.00 0.00 0.00 54 1016.6
20260502100302 70 203 0.0 6.0 0.00 0.00 0.00 55 1016.7
20260502090303 66 193 0.0 4.0 0.00 0.00 0.00 59 1016.8
20260502070303 57 325 0.0 2.0 0.00 0.00 0.00 58 1016.5
20260502064803 56 260 0.0 2.0 0.00 0.00 0.00 56 1016.4
20260502063302 55 272 0.0 4.0 0.00 0.00 0.00 54 1016.7
20260502061802 55 261 0.0 6.0 0.00 0.00 0.00 53 1016.7
20260502060303 55 242 0.0 4.0 0.00 0.00 0.00 52 1016.7
20260502054803 55 254 0.0 4.0 0.00 0.00 0.00 51 1016.6
20260502053302 55 260 0.0 2.0 0.00 0.00 0.00 50 1016.6
20260502051803 55 260 0.0 4.0 0.00 0.00 0.00 49 1016.6
20260502050303 56 252 0.0 6.0 0.00 0.00 0.00 48 1016.5
20260502044803 55 189 0.0 6.0 0.00 0.00 0.00 47 1016.3
20260502043302 54 195 4.0 4.0 0.00 0.00 0.00 49 1016.3
20260502041802 54 194 0.0 4.0 0.00 0.00 0.00 49 1016.3
20260502040302 54 193 2.0 6.0 0.00 0.00 0.00 49 1016.4
20260502034802 54 176 0.0 6.0 0.00 0.00 0.00 49 1016.4
20260502033302 54 202 0.0 4.0 0.00 0.00 0.00 50 1016.5
20260502031802 55 182 2.0 6.0 0.00 0.00 0.00 48 1016.7
20260502030303 55 209 2.0 6.0 0.00 0.00 0.00 48 1016.6
20260502024803 55 203 2.0 4.0 0.00 0.00 0.00 48 1016.6
20260502023302 55 211 2.0 6.0 0.00 0.00 0.00 49 1016.8
20260502021803 55 212 4.0 6.0 0.00 0.00 0.00 48 1017.1